RH
22 25 24 39 56 57 64 74 77 53 56 79 54 45 36 42 53 60 43 24 39 40 48 52 68 82 93 95 100 99 98 66 53 68 99 92 70 42 34 38 44 52 61 64
26 20 25 29 43 58 67 74 62 62 63 83 67 41 31 29 31 41 47 33 21 32 35 41 47 56 78 89 92 100 79 78 57 66 99 99 93 63 51 52 56 62 63 64
22 21 24 27 40 52 59 70 63 75 76 66 72 50 29 26 29 27 36 45 37 25 26 30 34 31 32 72 90 92 100 90 68 71 99 100 100 90 61 60 63 65 65 66
19 17 23 28 32 46 57 49 68 75 91 91 84 88 53 26 25 26 34 41 37 31 26 32 26 22 21 33 48 89 100 99 96 81 100 99 100 91 79 67 77 75 74 71
18 19 28 30 29 40 43 53 73 85 94 99 92 94 40 31 25 31 30 38 39 36 25 23 24 20 20 19 24 42 96 100 94 94 100 93 96 99 100 97 91 82 66 64
14 16 26 22 29 43 51 64 82 94 97 92 78 89 36 31 38 38 36 40 38 38 40 37 41 36 38 44 63 47 68 88 98 84 94 90 100 99 99 100 97 88 80 62
20 15 17 15 32 51 57 77 91 86 89 93 73 87 35 32 35 35 38 35 39 39 34 38 44 55 70 71 86 100 52 44 60 77 84 92 89 95 99 96 97 100 87 90
35 27 14 19 25 41 50 76 78 78 96 84 69 80 37 37 40 42 35 36 38 40 39 30 43 52 54 61 66 93 97 73 83 74 73 81 71 73 77 94 92 93 87 96
28 30 23 25 33 45 73 100 80 90 94 94 69 59 27 38 35 44 42 36 40 47 45 41 32 46 53 51 56 68 79 92 94 100 94 71 86 76 58 48 61 95 97 70
36 35 31 34 45 64 68 72 94 90 96 96 77 73 34 42 41 44 45 41 41 43 46 44 40 32 35 45 53 55 50 67 76 95 94 78 88 83 70 33 28 54 58 99
38 42 41 47 56 31 69 96 79 73 78 93 95 51 24 26 30 45 47 43 42 39 35 34 36 44 38 33 36 38 42 48 57 86 90 86 84 79 68 51 29 30 62 65
59 54 55 45 41 44 62 58 60 70 80 95 87 57 25 30 30 28 29 44 43 39 41 39 33 43 48 46 48 43 38 37 42 68 92 99 92 92 57 47 60 59 68 64
53 54 64 56 59 67 74 67 60 72 66 78 92 51 26 31 37 31 32 41 49 48 41 42 42 37 42 50 53 49 37 38 42 55 85 94 98 96 88 77 75 74 82 80
89 72 58 56 42 40 62 52 39 77 90 77 66 37 33 37 36 30 29 31 33 25 39 34 40 44 43 42 44 51 47 45 55 63 60 81 99 100 99 94 81 96 98 94
95 95 82 69 62 62 59 43 40 60 50 78 62 49 23 25 31 27 28 30 26 24 25 26 36 38 42 41 48 51 55 58 59 61 64 63 82 96 100 98 100 99 100 100
98 93 99 90 75 78 70 52 54 45 42 51 67 48 27 28 32 28 31 30 28 26 23 23 21 24 39 40 35 45 52 46 56 57 60 63 64 77 97 100 100 100 100 99
69 97 97 92 79 79 83 53 61 55 50 47 53 43 27 30 30 30 28 27 27 24 22 22 22 25 43 42 41 34 31 33 50 56 63 62 61 68 72 89 100 100 99 100
61 72 97 94 83 92 58 57 50 45 45 51 44 39 33 29 25 28 27 26 28 28 28 25 26 33 52 53 45 43 37 30 27 32 52 62 67 73 82 84 88 98 98 100
52 45 97 95 93 73 63 58 53 50 47 44 38 33 27 26 26 23 21 21 26 31 32 29 26 36 45 50 48 32 34 35 30 27 23 35 72 76 78 80 69 87 92 96
82 50 53 91 94 87 60 48 53 47 50 40 37 31 26 28 24 21 28 33 36 35 34 38 36 39 36 31 27 27 25 26 27 26 25 24 23 41 66 82 87 78 47 60
78 98 100 93 94 90 58 56 53 53 44 37 32 30 27 28 26 32 40 41 40 42 46 41 30 30 30 29 27 26 25 25 26 28 27 26 25 24 22 22 26 28 35 68
100 94 97 94 94 89 65 64 61 48 47 41 35 34 34 30 34 43 46 49 50 50 43 44 36 38 42 41 38 37 35 32 31 30 30 28 26 24 24 25 26 28 33 38
96 90 87 97 69 62 54 57 63 55 53 46 45 45 38 42 48 53 58 58 57 59 47 49 48 45 46 49 50 50 49 49 49 49 50 48 46 43 40 34 31 27 24 26
95 97 97 97 90 74 68 63 62 61 59 59 57 55 53 55 59 64 64 62 66 76 60 54 56 57 59 64 64 63 67 71 68 67 69 72 73 65 59 60 51 41 37 50
99 96 97 98 98 96 82 84 74 69 68 65 62 60 63 65 68 72 78 81 90 90 85 79 82 86 85 86 84 79 79 80 86 92 87 78 69 61 60 62 61 51 44 43
98 97 97 97 97 96 91 88 88 82 85 75 79 83 91 95 91 90 96 96 97 97 97 96 96 95 91 88 92 94 92 92 92 90 79 70 67 68 63 58 56 53 50 49
Wind_Speed
18 17 18 13 14 16 19 22 24 24 18 28 27 32 29 25 28 27 26 30 33 33 22 23 20 22 28 35 43 39 36 40 43 41 35 33 29 27 25 24 23 22 19 17
20 23 10 13 14 16 19 23 27 26 17 23 33 37 29 26 28 26 25 30 33 35 34 30 27 22 23 39 48 49 54 41 45 40 36 34 29 28 28 28 27 24 21 20
21 20 22 17 14 16 18 24 25 28 28 27 26 34 29 14 16 23 26 28 32 34 35 34 31 29 28 32 38 50 32 36 42 43 36 35 35 33 34 31 28 24 25 24
16 14 12 15 18 15 22 14 15 17 17 8 12 12 28 12 8 18 21 28 30 34 33 31 30 30 29 28 31 49 30 39 40 44 37 40 33 33 31 29 27 28 28 27
18 22 22 23 23 15 17 16 15 14 17 21 8 9 8 18 10 4 12 18 24 29 32 34 32 30 29 29 26 31 41 39 38 39 40 38 39 31 31 32 29 31 30 30
26 27 26 25 23 17 16 13 15 16 13 5 4 6 10 3 6 6 7 8 16 24 31 33 28 26 26 25 25 28 44 21 35 26 32 40 38 34 34 32 33 31 31 30
25 28 27 25 25 23 22 11 5 2 2 6 5 9 13 7 11 9 10 13 11 16 25 34 36 32 28 28 30 31 24 34 39 38 31 38 34 30 35 33 30 31 32 24
23 18 17 16 16 10 13 18 6 5 3 5 9 9 3 5 8 5 11 11 8 8 16 24 37 36 33 30 31 35 30 26 31 45 40 41 38 34 28 33 34 33 29 31
13 13 10 14 13 13 11 16 13 7 5 4 7 10 17 6 14 7 4 5 9 8 10 16 23 38 35 32 30 29 36 35 35 38 32 36 43 46 44 29 31 32 28 22
21 18 17 20 19 17 22 12 8 9 4 5 6 9 15 3 4 6 10 8 7 9 8 11 14 20 35 35 30 28 26 34 37 38 37 38 41 42 46 36 32 28 27 27
19 20 21 18 23 25 26 25 14 9 7 4 2 7 5 4 4 4 9 10 9 9 11 12 14 20 21 29 33 34 34 31 35 40 46 47 49 49 47 40 38 32 26 27
26 22 22 32 26 24 28 27 30 13 8 9 4 12 21 18 7 6 8 6 12 14 15 17 16 19 25 27 28 29 34 38 34 36 41 49 50 48 45 42 38 32 29 27
30 23 20 21 22 28 26 31 30 33 24 19 9 7 5 12 10 5 13 10 14 16 16 15 16 20 23 29 31 29 30 35 35 33 37 42 54 50 47 48 43 39 36 35
21 31 36 27 12 9 25 37 37 40 22 22 37 36 30 15 18 25 29 28 25 28 24 18 16 17 21 23 29 26 25 30 32 30 35 39 47 50 50 53 49 45 44 45
38 30 34 42 46 34 32 35 31 33 39 30 32 37 29 27 28 24 28 19 9 12 19 30 27 22 21 21 22 24 25 27 31 34 33 36 36 45 48 65 59 51 51 46
23 31 37 47 47 44 44 41 39 42 44 41 40 35 28 29 29 26 22 19 21 21 21 21 25 27 25 23 22 22 24 27 31 34 35 34 36 38 43 49 57 56 48 46
43 36 26 36 39 30 25 56 42 42 46 43 40 38 29 30 24 19 20 21 19 19 21 21 21 24 25 29 25 25 24 23 26 29 29 31 35 35 34 47 36 42 46 46
41 41 35 32 30 21 42 36 36 42 41 51 41 36 25 19 20 21 21 26 28 26 24 24 23 21 26 27 29 29 29 28 26 26 29 29 29 29 29 32 40 42 52 38
41 41 32 26 23 26 16 31 33 35 35 29 34 18 10 13 20 22 26 28 30 27 23 21 24 25 25 26 26 26 29 31 30 28 25 28 29 29 29 28 25 28 40 35
30 44 46 31 13 9 29 37 29 17 39 27 22 13 13 15 23 25 23 23 25 17 15 16 22 25 26 27 27 27 26 27 29 29 28 25 25 31 33 33 33 32 28 34
27 40 44 39 35 21 18 9 27 26 21 25 25 22 19 20 20 20 19 19 18 14 14 14 17 16 14 14 16 18 20 22 21 20 20 21 22 24 26 29 32 34 37 39
33 19 28 38 29 26 26 21 25 36 29 21 19 22 21 19 18 19 17 16 11 10 10 8 9 11 11 10 9 8 7 7 7 6 6 8 11 15 19 22 24 26 29 30
13 31 20 23 35 25 32 29 26 23 23 26 25 18 17 15 15 13 12 11 11 11 12 12 13 13 10 8 7 6 5 4 3 1 1 3 5 8 11 14 16 19 22 25
29 17 25 14 19 27 28 17 16 16 18 18 17 18 14 14 11 12 14 15 15 16 16 12 10 11 10 9 8 6 3 1 2 4 8 13 17 20 20 20 19 21 21 21
27 9 7 16 8 14 14 16 16 15 14 16 18 18 16 15 16 18 19 22 21 20 20 16 14 13 14 12 13 13 12 13 15 16 22 24 24 24 23 22 23 24 25 25
30 22 12 6 12 18 18 19 21 21 22 20 20 19 19 20 23 22 22 19 17 16 17 19 16 15 17 20 27 28 28 27 25 25 26 26 26 26 26 24 24 24 25 26
Wind_Direction
301 295 307 289 282 279 279 285 288 297 300 296 287 283 276 270 262 257 243 231 231 238 234 237 231 235 237 224 220 219 229 228 222 216 215 215 216 216 215 214 217 221 226 233
292 298 271 286 279 275 275 283 290 301 307 294 292 284 283 279 269 261 256 238 232 233 234 234 239 246 245 228 225 223 223 228 226 218 218 220 219 218 217 217 219 223 230 236
289 294 291 288 274 276 276 279 292 296 308 302 296 292 290 281 277 247 242 237 238 236 235 234 238 247 253 235 226 212 208 222 225 218 222 219 222 218 220 221 224 228 235 237
294 303 282 281 277 273 278 289 292 295 313 313 310 297 297 317 264 235 233 231 235 236 235 230 229 234 245 253 250 242 215 207 217 215 222 221 223 228 230 229 229 233 236 238
289 292 289 283 288 276 277 283 290 292 296 307 310 253 289 307 254 192 225 238 235 235 239 240 234 237 242 247 254 246 222 200 208 216 227 220 232 223 229 233 234 242 246 245
292 294 282 284 283 271 265 280 285 285 288 269 284 237 291 13 94 113 184 206 231 232 232 230 231 237 237 239 226 228 239 244 209 222 218 227 229 227 224 231 237 245 246 240
284 289 287 287 268 261 254 252 313 351 207 234 274 277 256 238 265 286 251 241 228 230 230 225 223 221 222 228 225 234 213 193 212 227 225 225 236 239 223 233 238 240 255 238
273 278 279 280 269 242 236 217 197 232 211 276 280 244 206 153 175 238 271 241 242 239 232 229 224 221 221 226 226 223 224 211 209 215 223 224 234 230 239 233 241 237 235 242
258 258 253 266 257 227 209 206 234 251 268 286 251 275 303 294 251 232 275 276 250 246 238 231 233 230 224 223 228 229 225 232 234 234 237 228 233 224 230 251 239 243 227 234
257 271 263 250 239 224 224 205 172 192 209 242 274 271 247 133 146 235 272 259 247 244 246 235 237 233 230 230 226 226 227 229 236 234 229 233 231 223 222 232 229 228 219 231
255 260 270 241 230 243 221 213 211 203 202 188 271 260 233 320 286 255 220 247 264 264 252 267 247 238 229 230 234 236 231 230 230 234 230 232 228 232 221 228 223 218 225 225
282 260 254 257 257 250 249 246 233 208 205 210 205 265 276 261 230 76 9 335 288 282 279 280 261 235 233 235 242 245 235 229 231 233 235 232 221 219 216 222 210 209 212 225
271 248 252 264 248 237 233 236 233 233 234 210 180 247 265 179 161 30 341 315 281 264 262 252 250 247 245 243 243 252 246 237 233 238 235 225 220 218 224 226 227 221 219 223
248 241 243 243 234 238 227 238 242 234 227 230 229 249 248 238 255 288 302 305 280 258 253 251 251 253 256 260 250 250 240 232 231 236 242 242 239 233 235 226 222 227 229 225
255 257 251 254 252 254 266 260 260 245 250 231 245 251 277 278 277 297 294 311 274 291 271 253 249 252 254 259 257 247 239 236 240 240 244 247 247 247 243 227 232 236 233 233
258 264 266 264 260 264 266 265 257 254 263 254 247 255 272 285 290 295 301 294 278 289 289 261 257 251 245 245 252 250 243 243 240 240 244 247 251 247 251 235 241 246 230 229
268 275 277 262 261 264 246 250 246 248 255 257 251 267 279 284 286 293 294 298 294 298 300 275 268 242 244 244 250 250 250 247 241 240 239 244 250 254 261 248 252 231 235 237
264 263 261 278 255 235 251 253 254 254 259 257 266 269 271 268 289 295 302 294 290 288 296 291 261 243 241 243 244 250 252 253 249 241 240 238 243 244 247 258 257 246 246 252
250 250 246 247 253 245 233 246 237 232 250 255 267 257 252 281 285 299 299 293 290 281 282 285 261 246 242 245 249 252 250 248 253 250 246 244 243 243 245 248 262 259 260 260
257 232 228 238 253 235 255 247 242 248 247 241 228 245 276 271 289 298 301 295 293 270 263 265 263 258 254 251 251 251 251 245 247 249 250 250 246 242 244 244 243 246 262 268
262 222 217 226 240 257 269 248 220 207 234 235 239 260 255 278 286 286 294 301 285 263 266 268 265 249 237 236 238 237 239 241 248 251 248 248 248 248 249 250 252 254 252 245
268 232 207 217 233 238 236 242 216 226 230 236 215 242 267 280 281 280 284 285 274 263 244 198 188 162 150 148 152 155 166 181 197 216 236 256 264 265 263 261 259 257 257 254
251 231 240 204 231 228 233 234 226 225 239 249 257 255 273 272 272 259 264 255 217 222 209 181 168 167 160 159 159 155 153 149 150 167 299 297 289 291 289 283 276 267 263 260
325 226 232 227 191 214 221 224 222 224 231 236 251 264 256 259 236 237 230 236 207 202 203 202 190 183 180 186 185 184 182 214 253 272 286 297 303 303 298 287 285 280 274 266
350 327 310 232 217 194 171 186 207 205 231 245 245 235 236 234 218 207 205 219 207 196 194 199 215 227 225 221 212 221 236 255 271 292 301 302 299 294 290 285 273 268 266 261
10 350 325 136 201 220 221 223 237 246 226 212 207 206 212 208 189 210 205 223 208 213 215 221 231 244 255 261 263 266 269 277 278 289 285 280 279 276 273 271 268 265 262 260